INTELSAT 21 (IS-21) (38749 NORAD) Tracking and Keplerian Element Data

This shows tracking and keplerian element data for the satellite.

Feedback or suggestion? Click here.




ElementValue
Catalog38749
NameINTELSAT 21 (IS-21)
Epoch Orbit2167
Epoch Day201.3332199
Epoch Year2018
RAAN57.9699
Inclination0.0107
Eccentricity0.0002126
Argument of Perigee54.2907
Mean Anonmoly247.7449
Mean Motion1.00272797
Decay Rate-3.01E-06
L11 38749U 12045A 18201.33321990 -.00000301 00000-0 00000+0 0 9999
L22 38749 0.0107 57.9699 0002126 54.2907 247.7449 1.00272797 21672

Live tracking and technical data element details for INTELSAT 21 (IS-21) (NORAD 38749). INTELSAT 21 (IS-21) can be tracked NOW for your location showing map with azimuth and elevation plus other details from your city location.

Track the satellite on the map from your city or location and see movement details for azimuth, elevation, latitude, longitude, range, height, and movement on the map or in text.







IsCatalogInMostPopularTable: catalog: 38749, numindb: 65
Update: records affected: 1



GetName: 38749 INTELSAT 21 (IS-21)

Hit Count: updated at: Sat, 21 Jul 2018 07:55:57 GMT